Погода в Рокетас де Маре

Испания     36°45′49″N   2°36′44″W
темп.,
°C
ветер,
м/с
пор.,
м/с
влажн.,
%
обл.,
%
осадки,
мм/ч
давл.,
гПа
погр.,
м
24 октября, вс
вс2423:00+20в456711 0.0 1023795
02:00+20всв457057 0.0 1022718
05:00+19всв34711 0.0 1022483
08:00+19всв33710 0.1 1022373
11:00+19всв33720 0.0 1023453
14:00+20юв337211 0.0 1023642
17:00+19вюв23744 0.1 1021430
20:00+19вюв12744 0.1 1022401
25 октября, пн
пн2523:00+19в22735 0.0 1022407
02:00+19в22745 0.0 1022382
05:00+19всв3375100 0.0 1021368
08:00+19всв337677 0.0 1021379
11:00+19всв4474100 0.0 1022471
14:00+20вюв556698 0.0 1021682
17:00+20в6765100 0.0 1018592
20:00+20в676699 0.0 1020532
26 октября, вт
вт2623:00+20всв6766100 0.0 1020546
02:00+20всв6864100 0.0 1020545
05:00+19всв6764100 0.0 1019478
08:00+20св6860100 0.0 1019540
11:00+20св5759100 0.0 1021523
14:00+21всв81065100 0.0 1020648
17:00+21всв9106498 0.0 1018596
20:00+21всв896784 0.0 1020543
27 октября, ср
ср2723:00+20св686995 0.0 1021452
02:00+20св686858 0.0 1020521
05:00+20св576858 0.0 1020530
08:00+19св686764 0.0 1019520
11:00+20св686899 0.0 1021703
14:00+19всв7972100 0.8 1021774
17:00+19св7974100 1.8 1020673
20:00+19ссв61074100 2.6 1020678
28 октября, чт
чт2823:00+20всв687048 0.1 1021712
02:00+19св696995 0.1 1020689
05:00+19св5768100 0.3 1019612
08:00+19св57696 0.3 1019557
11:00+20св68653 0.0 1020821
14:00+21всв78663 0.0 1019590
17:00+21в78672 0.0 1017519
20:00+20в77730 0.0 1018535